[[{"header":{"parameterUnit":"m.s-1","parameterCategory":1,"la1":30.2991,"la2":30.254,"lo1":-89.0895,"lo2":-89.0444,"dy":0.0017,"dx":0.0017,"nx":28,"ny":28,"refTime":"2024-08-10T03:00:00:Z","depth":0,"parameterNumber":2,"parameterNumberName":"U-component_of_WINDS"},"data":[0,0,0,0,0,0,0,0,0,0,0,0,0,0,0,0,0,0,0,0,0,0,0,0,0,0,0,0,0,0,0,0,0,0,0,0,0,0,0,0,0,0,0,0,0,0,0,0,0,0,0,0,0,0,0,0,0,0,0.2746,0.2745,0,0.2649,0.2647,0.2646,0.2626,0.2626,0.2627,0.2628,0.2528,0.2524,0.2521,0,0,0,0,0,0,0,0,0,0,0,0,0,0.2911,0.2908,0.2746,0.2745,0.2743,0.2649,0.2647,0.2646,0.2626,0.2626,0.2627,0.2628,0.2529,0.2525,0.2521,0,0,0,0,0,0,0,0,0,0,0,0,0,0.2829,0.2907,0.2746,0.2722,0.2719,0.2649,0.2647,0.2646,0.2625,0.2626,0.2628,0.2629,0.253,0.2525,0.252,0.2468,0,0,0.2505,0.2503,0,0,0,0,0,0,0,0,0.2834,0.2823,0.2727,0.2723,0.272,0.265,0.2669,0.2586,0.2625,0.2661,0.2628,0.2629,0.2567,0.2559,0.2539,0.2463,0.2459,0.2504,0.2501,0.2499,0.2498,0,0,0,0,0,0,0,0.2839,0.2827,0.2707,0.2725,0.2721,0.2715,0.2704,0.2653,0.2609,0.2658,0.2656,0.2645,0.2566,0.2544,0.2536,0.2457,0.2505,0.25,0.2497,0.2495,0.2329,0.2328,0,0,0,0,0,0,0.285,0.2832,0.271,0.2704,0.2781,0.2711,0.2699,0.2672,0.261,0.2601,0.2644,0.2644,0.2552,0.2542,0.2533,0.2464,0.2499,0.2495,0.2492,0.2331,0.2329,0.2327,0,0,0,0,0,0,0.2853,0.2839,0.2714,0.2768,0.2751,0.2707,0.2676,0.2669,0.2647,0.2599,0.2591,0.263,0.2552,0.254,0.2483,0.2461,0.2492,0.2488,0.2332,0.233,0.2328,0.2329,0,0,0,0,0,0,0.2858,0.284,0.2821,0.2767,0.2749,0.2667,0.2675,0.2666,0.2638,0.2638,0.2584,0.2576,0.2552,0.2491,0.2478,0.2454,0.2484,0.2334,0.2331,0.2329,0.233,0.2327,0.2324,0,0,0,0,0,0.2864,0.2826,0.282,0.2805,0.2723,0.2666,0.2655,0.2629,0.2637,0.2616,0.2585,0.2577,0.2466,0.2485,0.2471,0.2445,0.2335,0.2332,0.2329,0.2332,0.2328,0.2324,0,0,0,0,0,0,0.2878,0.2818,0.2811,0.2755,0.2715,0.2663,0.2636,0.2626,0.2583,0.2585,0.2554,0.2541,0.2486,0.246,0.2483,0.2389,0.2401,0.2394,0.2408,0.2403,0.24,0.2406,0.248,0,0,0,0,0,0.2874,0.2834,0.2783,0.2738,0.2719,0.2681,0.2655,0.2638,0.2596,0.2579,0.2544,0.2503,0.2458,0.243,0.2386,0.2327,0.2313,0.2302,0.2299,0.2296,0.2291,0.2254,0.2247,0.2317,0.2317,0.2317,0,0,0.2867,0.2829,0.2805,0.274,0.2708,0.2664,0.2667,0.2622,0.2589,0.2572,0.2516,0.2489,0.2441,0.2382,0.2354,0.2358,0.2268,0.2292,0.2291,0.2286,0.225,0.2244,0.2238,0.2315,0.2315,0.2316,0,0,0.283,0.2799,0.2756,0.2723,0.2673,0.2648,0.2638,0.2586,0.2567,0.251,0.2495,0.2455,0.238,0.2345,0.2318,0.2265,0.2256,0.2252,0.2234,0.2199,0.2193,0.2188,0.2166,0.2159,0.2247,0.2247,0.2247,0,0.2827,0.2762,0.2735,0.269,0.266,0.2642,0.2597,0.2567,0.2506,0.2485,0.2491,0.2394,0.2361,0.2292,0.2278,0.2258,0.2243,0.2257,0.2196,0.2191,0.2186,0.2164,0.2157,0.2247,0.2247,0.2247,0.2247,0,0.2758,0.2713,0.2685,0.2625,0.2592,0.2548,0.2513,0.2483,0.2468,0.2441,0.2382,0.2341,0.2287,0.227,0.2256,0.2198,0.2202,0.2203,0.2213,0.2179,0.2158,0.215,0.2246,0.2246,0.2246,0.2246,0,0,0.2728,0.2653,0.2642,0.2614,0.2557,0.2521,0.2475,0.2422,0.2395,0.2353,0.2312,0.2247,0.2246,0.2215,0.2197,0.2166,0.2123,0.217,0.2168,0.216,0.2052,0.2051,0.2042,0.2117,0.2115,0.2114,0.2055,0,0.2683,0.2599,0.2572,0.2502,0.2459,0.244,0.2399,0.2359,0.2332,0.229,0.2261,0.2214,0.2218,0.2199,0.2168,0.2135,0.21,0.2139,0.2076,0.2074,0.2086,0.2032,0.203,0.1977,0.2048,0.2046,0.2045,0,0.2619,0.2575,0.25,0.2445,0.2426,0.239,0.2337,0.2298,0.2251,0.2234,0.2198,0.2181,0.213,0.2144,0.2072,0.2098,0.2071,0.2051,0.2048,0.2039,0.2056,0.2019,0.196,0.1951,0.2033,0.2034,0.2035,0,0.2601,0.2523,0.2467,0.2443,0.2379,0.2354,0.2326,0.228,0.2249,0.2203,0.2182,0.2131,0.2102,0.2063,0.2032,0.2046,0.196,0.1974,0.1942,0.1943,0.1924,0.1925,0.1857,0.1911,0.1911,0.1911,0.1911,0,0.2552,0.2506,0.2457,0.2423,0.237,0.2339,0.2287,0.2258,0.2217,0.2175,0.2157,0.2118,0.208,0.2036,0.2012,0.1953,0.1941,0.1924,0.1918,0.1924,0.1926,0.1904,0.1906,0.1909,0.1909,0.191,0.191,0,0.2523,0.2489,0.2426,0.237,0.2354,0.2317,0.2269,0.2233,0.2205,0.2152,0.2138,0.2094,0.204,0.2006,0.1938,0.1921,0.1856,0.1853,0.1872,0.1868,0.1838,0.184,0.1751,0.1737,0.1803,0.1802,0.1802,0,0.2493,0.2456,0.2396,0.2366,0.2337,0.2291,0.2258,0.2225,0.2192,0.2134,0.2105,0.205,0.2004,0.1919,0.188,0.1827,0.182,0.1792,0.1812,0.1818,0.1816,0.1817,0.1812,0.1789,0.1788,0.1788,0.1787,0,0.2442,0.2426,0.238,0.2327,0.2288,0.2245,0.2202,0.2179,0.2138,0.2101,0.2046,0.201,0.1939,0.1884,0.1827,0.1797,0.1784,0.1782,0.1771,0.1776,0.1788,0.1778,0.186,0.1784,0.1784,0.1784,0.1784,0.1785,0.2409,0.2375,0.2325,0.2274,0.2238,0.2197,0.216,0.2126,0.2079,0.2019,0.2003,0.1944,0.1895,0.1816,0.1785,0.1737,0.1741,0.1726,0.1722,0.1718,0.1716,0.1797,0.1727,0.1727,0.1728,0.1728,0.1728,0,0.2354,0.2321,0.2274,0.2213,0.2172,0.2164,0.2115,0.208,0.2029,0.1984,0.1939,0.1873,0.1818,0.1774,0.1718,0.1688,0.168,0.1673,0.1674,0.1667,0.1718,0.1731,0.168,0.168,0.168,0.168,0.168,0.168,0.2321,0.2262,0.2239,0.2161,0.2128,0.2069,0.2041,0.2003,0.1967,0.1894,0.1848,0.182,0.1774,0.1713,0.1662,0.165,0.1629,0.1623,0.161,0.1658,0.1664,0.1668,0.1681,0.1619,0.1619,0.1562,0.1561,0.1561]},{"header":{"parameterUnit":"m.s-1","parameterCategory":1,"la1":30.2991,"la2":30.254,"lo1":-89.0895,"lo2":-89.0444,"dy":0.0017,"dx":0.0017,"nx":28,"ny":28,"refTime":"2024-08-10T03:00:00:Z","depth":0,"parameterNumber":3,"parameterNumberName":"V-component_of_WINDS"},"data":[0,0,0,0,0,0,0,0,0,0,0,0,0,0,0,0,0,0,0,0,0,0,0,0,0,0,0,0,0,0,0,0,0,0,0,0,0,0,0,0,0,0,0,0,0,0,0,0,0,0,0,0,0,0,0,0,0,0,-4.3802,-4.3803,0,-4.3874,-4.3875,-4.3876,-4.3802,-4.3799,-4.3796,-4.3793,-4.3862,-4.3867,-4.3871,0,0,0,0,0,0,0,0,0,0,0,0,0,-4.3598,-4.3602,-4.3802,-4.3803,-4.3804,-4.3874,-4.3875,-4.3876,-4.3802,-4.3799,-4.3795,-4.3792,-4.3861,-4.3866,-4.3872,0,0,0,0,0,0,0,0,0,0,0,0,0,-4.368,-4.3603,-4.3802,-4.3776,-4.3774,-4.3874,-4.3875,-4.3876,-4.3803,-4.3799,-4.3794,-4.379,-4.3859,-4.3866,-4.3872,-4.4,0,0,-4.3893,-4.3896,0,0,0,0,0,0,0,0,-4.3675,-4.3687,-4.3779,-4.3778,-4.3776,-4.3825,-4.3828,-4.3918,-4.3804,-4.3792,-4.3793,-4.3788,-4.3853,-4.386,-4.3883,-4.4003,-4.4006,-4.3894,-4.3898,-4.3901,-4.3903,0,0,0,0,0,0,0,-4.367,-4.3684,-4.383,-4.378,-4.3779,-4.3759,-4.3766,-4.3845,-4.3845,-4.3793,-4.3787,-4.3797,-4.3851,-4.3876,-4.3884,-4.4007,-4.3893,-4.3899,-4.3904,-4.3906,-4.4239,-4.4243,0,0,0,0,0,0,-4.3667,-4.368,-4.3828,-4.3833,-4.3714,-4.3767,-4.3774,-4.3813,-4.3844,-4.3845,-4.3801,-4.3793,-4.3867,-4.3876,-4.3886,-4.404,-4.3901,-4.3907,-4.3911,-4.4234,-4.424,-4.4245,0,0,0,0,0,0,-4.3663,-4.3681,-4.3825,-4.3755,-4.3772,-4.3775,-4.3819,-4.3817,-4.3842,-4.3851,-4.385,-4.3827,-4.3864,-4.3876,-4.3973,-4.4041,-4.391,-4.3916,-4.4228,-4.4236,-4.4243,-4.4348,0,0,0,0,0,0,-4.3658,-4.368,-4.373,-4.3757,-4.3776,-4.3913,-4.3823,-4.3822,-4.3854,-4.3846,-4.3875,-4.3875,-4.3862,-4.3964,-4.398,-4.4048,-4.3921,-4.4222,-4.4232,-4.424,-4.4338,-4.4358,-4.4374,0,0,0,0,0,-4.3651,-4.3755,-4.3733,-4.3751,-4.3838,-4.3917,-4.3928,-4.3911,-4.386,-4.391,-4.3915,-4.3874,-4.4031,-4.3974,-4.3992,-4.4063,-4.4218,-4.4229,-4.424,-4.433,-4.4354,-4.4374,0,0,0,0,0,0,-4.3734,-4.3758,-4.3733,-4.3849,-4.3882,-4.3904,-4.3966,-4.3936,-4.3982,-4.3972,-4.3948,-4.3955,-4.4058,-4.407,-4.4006,-4.419,-4.4116,-4.4131,-4.4179,-4.4202,-4.4219,-4.4215,-4.3927,0,0,0,0,0,-4.3766,-4.3829,-4.3846,-4.3947,-4.3965,-4.3963,-4.3996,-4.3981,-4.4013,-4.4026,-4.4039,-4.407,-4.4127,-4.4164,-4.4216,-4.4339,-4.4345,-4.4397,-4.4415,-4.443,-4.4443,-4.4512,-4.4536,-4.428,-4.428,-4.428,0,0,-4.3832,-4.3853,-4.3894,-4.3964,-4.3988,-4.4054,-4.3975,-4.4047,-4.4096,-4.4036,-4.413,-4.414,-4.4174,-4.4285,-4.4335,-4.4298,-4.4515,-4.4443,-4.4455,-4.4461,-4.4525,-4.455,-4.4571,-4.4288,-4.4286,-4.4285,0,0,-4.3988,-4.4009,-4.4097,-4.4123,-4.416,-4.4159,-4.418,-4.4207,-4.4213,-4.4306,-4.4264,-4.432,-4.4417,-4.4444,-4.447,-4.4638,-4.4603,-4.4655,-4.475,-4.4817,-4.4837,-4.4855,-4.4918,-4.494,-4.4669,-4.4669,-4.4669,0,-4.4065,-4.4165,-4.4145,-4.4223,-4.4255,-4.4206,-4.4295,-4.432,-4.4372,-4.4396,-4.4354,-4.4477,-4.4495,-4.4614,-4.4655,-4.4677,-4.4701,-4.4653,-4.4836,-4.4854,-4.487,-4.4929,-4.4953,-4.4675,-4.4675,-4.4674,-4.4673,0,-4.4259,-4.4329,-4.4395,-4.4449,-4.4489,-4.4571,-4.4565,-4.4607,-4.4588,-4.4591,-4.4688,-4.4709,-4.4766,-4.4792,-4.4773,-4.4908,-4.4885,-4.484,-4.4766,-4.4901,-4.4957,-4.4979,-4.4684,-4.4682,-4.468,-4.4679,0,0,-4.4469,-4.4514,-4.4539,-4.4564,-4.4602,-4.4655,-4.4735,-4.4793,-4.4831,-4.4868,-4.4935,-4.502,-4.498,-4.5009,-4.4993,-4.5051,-4.5187,-4.5,-4.5,-4.5036,-4.534,-4.5375,-4.5402,-4.5163,-4.5167,-4.517,-4.5338,0,-4.4628,-4.477,-4.4756,-4.4891,-4.4956,-4.4911,-4.4981,-4.5012,-4.5016,-4.5071,-4.5075,-4.5137,-4.5078,-4.5096,-4.5152,-4.5158,-4.5248,-4.5146,-4.5226,-4.5229,-4.5222,-4.543,-4.5467,-4.5625,-4.5359,-4.5363,-4.5365,0,-4.4832,-4.4881,-4.5023,-4.5054,-4.508,-4.5144,-4.5197,-4.525,-4.5284,-4.5283,-4.5318,-4.5292,-4.5373,-4.5296,-4.5407,-4.5338,-4.537,-4.5378,-4.5384,-4.5393,-4.5307,-4.5447,-4.5674,-4.5699,-4.5398,-4.5396,-4.5393,0,-4.4975,-4.5075,-4.5173,-4.5196,-4.5233,-4.528,-4.5297,-4.5327,-4.5364,-4.5409,-4.5433,-4.5486,-4.5516,-4.5558,-4.5547,-4.5492,-4.5662,-4.5583,-4.5665,-4.5665,-4.5704,-4.5703,-4.5943,-4.5721,-4.572,-4.572,-4.5719,0,-4.5156,-4.5245,-4.5239,-4.53,-4.5399,-4.5381,-4.5479,-4.549,-4.5518,-4.558,-4.5543,-4.5601,-4.5583,-4.564,-4.5632,-4.5727,-4.574,-4.5742,-4.5739,-4.5747,-4.5748,-4.5769,-4.5759,-4.5726,-4.5725,-4.5723,-4.5722,0,-4.5333,-4.5332,-4.5437,-4.5465,-4.5474,-4.5546,-4.557,-4.5627,-4.5629,-4.5708,-4.5726,-4.5729,-4.5795,-4.5788,-4.5861,-4.5856,-4.5975,-4.5957,-4.5964,-4.5962,-4.6045,-4.6038,-4.6309,-4.6345,-4.6097,-4.6099,-4.6101,0,-4.5449,-4.5518,-4.5554,-4.5594,-4.5616,-4.568,-4.5718,-4.5703,-4.5744,-4.579,-4.5842,-4.5905,-4.5955,-4.6063,-4.6071,-4.6128,-4.6113,-4.6204,-4.6121,-4.6128,-4.6118,-4.6116,-4.6123,-4.6221,-4.6224,-4.6226,-4.6228,0,-4.5658,-4.5654,-4.5711,-4.577,-4.5817,-4.5861,-4.5901,-4.5935,-4.5924,-4.5972,-4.6041,-4.608,-4.6157,-4.6221,-4.6274,-4.6291,-4.6259,-4.6254,-4.6277,-4.6287,-4.629,-4.6292,-4.6012,-4.6249,-4.6246,-4.6245,-4.6244,-4.6243,-4.581,-4.587,-4.5906,-4.5971,-4.6,-4.6039,-4.6096,-4.6106,-4.6164,-4.6227,-4.6214,-4.6292,-4.6325,-4.6395,-4.6417,-4.6477,-4.6444,-4.6476,-4.6484,-4.6493,-4.6505,-4.6278,-4.6486,-4.6486,-4.6485,-4.6485,-4.6484,0,-4.6019,-4.604,-4.6101,-4.616,-4.6212,-4.6178,-4.6221,-4.6266,-4.6336,-4.6371,-4.6422,-4.6502,-4.6564,-4.6578,-4.6638,-4.6683,-4.667,-4.67,-4.6698,-4.6703,-4.6529,-4.6505,-4.671,-4.671,-4.671,-4.671,-4.671,-4.671,-4.6134,-4.6235,-4.6236,-4.6351,-4.6371,-4.6449,-4.6477,-4.6513,-4.6541,-4.6633,-4.6686,-4.6695,-4.6721,-4.6783,-4.6839,-4.6841,-4.6866,-4.6902,-4.6899,-4.6737,-4.6714,-4.6693,-4.6671,-4.6907,-4.6907,-4.7068,-4.7069,-4.707]}]]